Time,TemperatureF,DewpointF,PressureIn,WindDirection,WindDirectionDegrees,WindSpeedMPH,WindSpeedGustMPH,Humidity,HourlyPrecipIn,Conditions,Clouds,dailyrainin,SoftwareType,DateUTC
2013-09-25 00:02:00,67.2,63.8,29.91,South,180,0.0,0.0,89,0.00,,,0.00,Wunderground v.1.15,2013-09-25 04:02:00,
2013-09-25 00:04:00,67.1,63.7,29.91,South,180,0.0,0.0,89,0.00,,,0.00,Wunderground v.1.15,2013-09-25 04:04:00,
2013-09-25 00:06:00,67.1,64.1,29.91,South,180,0.0,0.0,90,0.00,,,0.00,Wunderground v.1.15,2013-09-25 04:06:00,
2013-09-25 00:12:00,67.1,64.1,29.90,South,181,0.0,0.0,90,0.00,,,0.00,Wunderground v.1.15,2013-09-25 04:12:00,
2013-09-25 00:14:00,67.0,64.0,29.90,South,181,0.0,0.0,90,0.00,,,0.00,Wunderground v.1.15,2013-09-25 04:14:00,
2013-09-25 00:20:00,67.1,64.4,29.90,South,180,0.0,0.0,91,0.00,,,0.00,Wunderground v.1.15,2013-09-25 04:20:00,
2013-09-25 00:26:00,66.9,64.2,29.90,South,180,0.0,0.0,91,0.00,,,0.00,Wunderground v.1.15,2013-09-25 04:26:00,
2013-09-25 00:28:00,66.9,64.2,29.90,South,180,0.0,0.0,91,0.00,,,0.00,Wunderground v.1.15,2013-09-25 04:28:00,
2013-09-25 00:34:00,66.8,64.1,29.90,SSE,160,0.0,1.0,91,0.00,,,0.00,Wunderground v.1.15,2013-09-25 04:34:00,
2013-09-25 00:42:00,66.6,63.9,29.90,SSE,167,1.0,1.0,91,0.00,,,0.00,Wunderground v.1.15,2013-09-25 04:42:00,
2013-09-25 00:48:00,66.5,64.1,29.90,South,180,0.0,1.0,92,0.00,,,0.00,Wunderground v.1.15,2013-09-25 04:48:00,
2013-09-25 00:54:00,66.4,64.0,29.90,SSW,208,0.0,1.0,92,0.00,,,0.00,Wunderground v.1.15,2013-09-25 04:54:00,
2013-09-25 01:00:00,66.4,64.0,29.90,SSW,207,0.0,0.0,92,0.00,,,0.00,Wunderground v.1.15,2013-09-25 05:00:00,
2013-09-25 01:06:00,66.4,64.0,29.89,SSW,207,0.0,3.0,92,0.00,,,0.00,Wunderground v.1.15,2013-09-25 05:06:00,
2013-09-25 01:12:00,66.3,63.9,29.89,SSW,207,0.0,3.0,92,0.00,,,0.00,Wunderground v.1.15,2013-09-25 05:12:00,
2013-09-25 01:28:00,66.6,63.9,29.88,NW,312,0.0,3.0,91,0.00,,,0.00,Wunderground v.1.15,2013-09-25 05:28:00,
2013-09-25 01:34:00,66.4,64.0,29.88,NW,312,0.0,3.0,92,0.00,,,0.00,Wunderground v.1.15,2013-09-25 05:34:00,
2013-09-25 01:40:00,66.3,63.9,29.88,South,184,0.0,3.0,92,0.00,,,0.00,Wunderground v.1.15,2013-09-25 05:40:00,
2013-09-25 01:46:00,65.8,63.4,29.88,South,186,0.0,3.0,92,0.00,,,0.00,Wunderground v.1.15,2013-09-25 05:46:00,
2013-09-25 01:52:00,65.5,63.4,29.88,South,186,0.0,3.0,93,0.00,,,0.00,Wunderground v.1.15,2013-09-25 05:52:00,
2013-09-25 02:10:00,65.3,63.5,29.88,SSW,198,1.0,1.0,94,0.00,,,0.00,Wunderground v.1.15,2013-09-25 06:10:00,
2013-09-25 02:16:00,65.3,63.2,29.88,SSW,194,0.0,3.0,93,0.00,,,0.00,Wunderground v.1.15,2013-09-25 06:16:00,
2013-09-25 02:22:00,65.0,62.9,29.88,SSW,195,0.0,3.0,93,0.00,,,0.00,Wunderground v.1.15,2013-09-25 06:22:00,
2013-09-25 02:28:00,64.8,62.7,29.88,SSW,194,0.0,3.0,93,0.00,,,0.00,Wunderground v.1.15,2013-09-25 06:28:00,
2013-09-25 02:34:00,64.6,62.5,29.88,SSW,193,0.0,3.0,93,0.00,,,0.00,Wunderground v.1.15,2013-09-25 06:34:00,
2013-09-25 02:40:00,64.4,62.6,29.88,SSW,193,0.0,3.0,94,0.00,,,0.00,Wunderground v.1.15,2013-09-25 06:40:00,
2013-09-25 02:46:00,64.1,62.3,29.88,SW,226,1.0,3.0,94,0.00,,,0.00,Wunderground v.1.15,2013-09-25 06:46:00,
2013-09-25 02:52:00,64.0,62.2,29.88,SW,225,1.0,3.0,94,0.00,,,0.00,Wunderground v.1.15,2013-09-25 06:52:00,
2013-09-25 02:58:00,64.0,62.5,29.88,SW,225,0.0,3.0,95,0.00,,,0.00,Wunderground v.1.15,2013-09-25 06:58:00,
2013-09-25 03:04:00,64.0,62.5,29.88,SW,225,0.0,3.0,95,0.00,,,0.00,Wunderground v.1.15,2013-09-25 07:04:00,
2013-09-25 03:10:00,63.9,62.4,29.87,SW,225,0.0,3.0,95,0.00,,,0.00,Wunderground v.1.15,2013-09-25 07:10:00,
2013-09-25 03:16:00,63.8,62.3,29.87,SSW,211,0.0,3.0,95,0.00,,,0.00,Wunderground v.1.15,2013-09-25 07:16:00,
2013-09-25 03:22:00,63.9,62.4,29.87,SSW,211,0.0,3.0,95,0.00,,,0.00,Wunderground v.1.15,2013-09-25 07:22:00,
2013-09-25 03:28:00,63.9,62.4,29.88,SSW,208,0.0,3.0,95,0.00,,,0.00,Wunderground v.1.15,2013-09-25 07:28:00,
2013-09-25 03:34:00,64.1,62.6,29.88,SSW,208,1.0,3.0,95,0.00,,,0.00,Wunderground v.1.15,2013-09-25 07:34:00,
2013-09-25 03:40:00,64.2,62.7,29.88,SW,226,2.0,3.0,95,0.00,,,0.00,Wunderground v.1.15,2013-09-25 07:40:00,
2013-09-25 03:46:00,64.3,62.8,29.87,WNW,302,1.0,3.0,95,0.00,,,0.00,Wunderground v.1.15,2013-09-25 07:46:00,
2013-09-25 03:52:00,64.2,62.7,29.86,WNW,295,0.0,3.0,95,0.00,,,0.00,Wunderground v.1.15,2013-09-25 07:52:00,
2013-09-25 03:58:00,64.3,62.8,29.86,NW,321,1.0,3.0,95,0.00,,,0.00,Wunderground v.1.15,2013-09-25 07:58:00,
2013-09-25 04:04:00,64.6,63.1,29.85,NNW,338,2.0,3.0,95,0.00,,,0.00,Wunderground v.1.15,2013-09-25 08:04:00,
2013-09-25 04:10:00,64.8,63.3,29.85,NNW,333,3.0,4.0,95,0.00,,,0.00,Wunderground v.1.15,2013-09-25 08:10:00,
2013-09-25 04:16:00,65.1,63.6,29.85,NNE,26,4.0,5.0,95,0.00,,,0.00,Wunderground v.1.15,2013-09-25 08:16:00,
2013-09-25 04:22:00,65.5,64.0,29.86,West,269,2.0,3.0,95,0.00,,,0.00,Wunderground v.1.15,2013-09-25 08:22:00,
2013-09-25 04:28:00,65.2,63.4,29.87,SW,219,1.0,3.0,94,0.00,,,0.00,Wunderground v.1.15,2013-09-25 08:28:00,
2013-09-25 04:34:00,64.9,63.1,29.87,SW,219,1.0,3.0,94,0.00,,,0.00,Wunderground v.1.15,2013-09-25 08:34:00,
2013-09-25 04:40:00,64.9,63.1,29.86,South,170,0.0,3.0,94,0.00,,,0.00,Wunderground v.1.15,2013-09-25 08:40:00,
2013-09-25 04:46:00,65.1,63.3,29.87,SW,214,1.0,3.0,94,0.00,,,0.00,Wunderground v.1.15,2013-09-25 08:46:00,
2013-09-25 04:52:00,64.9,63.1,29.86,SW,221,2.0,3.0,94,0.00,,,0.00,Wunderground v.1.15,2013-09-25 08:52:00,
2013-09-25 05:00:00,64.8,63.0,29.86,WSW,245,1.0,3.0,94,0.00,,,0.00,Wunderground v.1.15,2013-09-25 09:00:00,
2013-09-25 05:06:00,64.9,63.1,29.86,WNW,291,1.0,3.0,94,0.00,,,0.00,Wunderground v.1.15,2013-09-25 09:06:00,
2013-09-25 05:12:00,65.0,63.2,29.85,NW,319,1.0,3.0,94,0.00,,,0.00,Wunderground v.1.15,2013-09-25 09:12:00,
2013-09-25 05:18:00,65.1,63.0,29.86,West,264,2.0,3.0,93,0.00,,,0.00,Wunderground v.1.15,2013-09-25 09:18:00,
2013-09-25 05:24:00,65.0,62.9,29.86,WNW,289,1.0,3.0,93,0.00,,,0.00,Wunderground v.1.15,2013-09-25 09:24:00,
2013-09-25 05:30:00,65.1,63.0,29.86,NW,305,1.0,1.0,93,0.00,,,0.01,Wunderground v.1.15,2013-09-25 09:30:00,
2013-09-25 05:36:00,65.0,62.9,29.86,West,262,1.0,3.0,93,0.00,,,0.01,Wunderground v.1.15,2013-09-25 09:36:00,
2013-09-25 05:42:00,65.0,62.9,29.86,WSW,252,0.0,3.0,93,0.09,,,0.02,Wunderground v.1.15,2013-09-25 09:42:00,
2013-09-25 05:48:00,65.0,63.2,29.86,South,177,0.0,3.0,94,0.10,,,0.03,Wunderground v.1.15,2013-09-25 09:48:00,
2013-09-25 05:54:00,65.0,63.2,29.87,South,174,1.0,3.0,94,0.05,,,0.03,Wunderground v.1.15,2013-09-25 09:54:00,
2013-09-25 06:00:00,64.9,63.1,29.86,SSE,163,0.0,3.0,94,0.00,,,0.03,Wunderground v.1.15,2013-09-25 10:00:00,
2013-09-25 06:06:00,65.0,63.2,29.87,SSE,163,0.0,3.0,94,0.00,,,0.03,Wunderground v.1.15,2013-09-25 10:06:00,
2013-09-25 06:12:00,65.0,63.2,29.86,South,177,0.0,3.0,94,0.00,,,0.04,Wunderground v.1.15,2013-09-25 10:12:00,
2013-09-25 06:18:00,64.9,63.4,29.86,SSW,207,0.0,3.0,95,0.00,,,0.04,Wunderground v.1.15,2013-09-25 10:18:00,
2013-09-25 06:24:00,64.9,63.4,29.86,WNW,295,0.0,3.0,95,0.05,,,0.05,Wunderground v.1.15,2013-09-25 10:24:00,
2013-09-25 06:30:00,64.9,63.4,29.86,West,277,0.0,3.0,95,0.10,,,0.06,Wunderground v.1.15,2013-09-25 10:30:00,
2013-09-25 06:36:00,64.9,63.4,29.86,WSW,244,1.0,3.0,95,0.06,,,0.06,Wunderground v.1.15,2013-09-25 10:36:00,
2013-09-25 06:42:00,64.8,63.3,29.86,West,276,0.0,3.0,95,0.06,,,0.07,Wunderground v.1.15,2013-09-25 10:42:00,
2013-09-25 06:48:00,64.8,63.3,29.86,WNW,288,0.0,3.0,95,0.05,,,0.07,Wunderground v.1.15,2013-09-25 10:48:00,
2013-09-25 06:54:00,64.8,63.3,29.87,WNW,301,1.0,3.0,95,0.04,,,0.08,Wunderground v.1.15,2013-09-25 10:54:00,
2013-09-25 07:00:00,64.9,63.4,29.87,NW,311,2.0,4.0,95,0.04,,,0.08,Wunderground v.1.15,2013-09-25 11:00:00,
2013-09-25 07:06:00,65.0,63.5,29.86,NW,315,3.0,4.0,95,0.04,,,0.08,Wunderground v.1.15,2013-09-25 11:06:00,
2013-09-25 07:12:00,65.0,63.5,29.87,NW,316,3.0,3.0,95,0.04,,,0.09,Wunderground v.1.15,2013-09-25 11:12:00,
2013-09-25 07:18:00,65.1,63.6,29.87,NNW,335,3.0,3.0,95,0.04,,,0.09,Wunderground v.1.15,2013-09-25 11:18:00,
2013-09-25 07:24:00,65.1,63.6,29.86,NW,322,3.0,4.0,95,0.00,,,0.09,Wunderground v.1.15,2013-09-25 11:24:00,
2013-09-25 07:30:00,65.0,63.2,29.87,NNW,343,3.0,3.0,94,0.00,,,0.09,Wunderground v.1.15,2013-09-25 11:30:00,
2013-09-25 07:36:00,65.1,63.0,29.87,NNW,334,2.0,4.0,93,0.00,,,0.09,Wunderground v.1.15,2013-09-25 11:36:00,
2013-09-25 07:42:00,65.4,62.7,29.88,North,5,4.0,6.0,91,0.00,,,0.09,Wunderground v.1.15,2013-09-25 11:42:00,
2013-09-25 07:48:00,65.6,62.9,29.88,North,357,6.0,6.0,91,0.00,,,0.09,Wunderground v.1.15,2013-09-25 11:48:00,
2013-09-25 07:54:00,65.8,63.1,29.88,North,4,6.0,8.0,91,0.00,,,0.10,Wunderground v.1.15,2013-09-25 11:54:00,
2013-09-25 08:00:00,65.7,63.0,29.88,NNW,347,6.0,6.0,91,0.10,,,0.11,Wunderground v.1.15,2013-09-25 12:00:00,
2013-09-25 08:06:00,65.5,63.1,29.88,NNW,335,4.0,6.0,92,0.12,,,0.12,Wunderground v.1.15,2013-09-25 12:06:00,
2013-09-25 08:12:00,65.4,63.0,29.88,NNE,20,4.0,5.0,92,0.10,,,0.13,Wunderground v.1.15,2013-09-25 12:12:00,
2013-09-25 08:18:00,65.3,62.9,29.87,NW,307,4.0,7.0,92,0.09,,,0.13,Wunderground v.1.15,2013-09-25 12:18:00,
2013-09-25 08:24:00,65.3,62.9,29.87,North,6,6.0,9.0,92,0.05,,,0.13,Wunderground v.1.15,2013-09-25 12:24:00,
2013-09-25 08:28:00,65.4,63.0,29.88,NNE,25,8.0,9.0,92,0.04,,,0.14,Wunderground v.1.15,2013-09-25 12:28:00,
2013-09-25 08:34:00,65.2,62.5,29.88,North,6,8.0,9.0,91,0.04,,,0.14,Wunderground v.1.15,2013-09-25 12:34:00,
2013-09-25 08:40:00,65.1,62.4,29.88,North,11,7.0,7.0,91,0.04,,,0.14,Wunderground v.1.15,2013-09-25 12:40:00,
2013-09-25 08:46:00,64.8,62.4,29.88,NNW,332,6.0,7.0,92,0.00,,,0.14,Wunderground v.1.15,2013-09-25 12:46:00,
2013-09-25 08:52:00,64.7,62.3,29.88,North,4,4.0,4.0,92,0.00,,,0.15,Wunderground v.1.15,2013-09-25 12:52:00,
2013-09-25 08:58:00,64.8,62.4,29.89,NNW,337,3.0,4.0,92,0.00,,,0.15,Wunderground v.1.15,2013-09-25 12:58:00,
2013-09-25 09:04:00,64.8,62.4,29.88,North,352,2.0,3.0,92,0.00,,,0.15,Wunderground v.1.15,2013-09-25 13:04:00,
2013-09-25 09:10:00,64.8,62.7,29.88,North,6,1.0,1.0,93,0.00,,,0.15,Wunderground v.1.15,2013-09-25 13:10:00,
2013-09-25 09:16:00,64.9,62.5,29.88,ENE,64,1.0,3.0,92,0.00,,,0.16,Wunderground v.1.15,2013-09-25 13:16:00,
2013-09-25 09:22:00,64.9,62.5,29.89,NE,39,3.0,5.0,92,0.08,,,0.17,Wunderground v.1.15,2013-09-25 13:22:00,
2013-09-25 09:28:00,64.8,62.1,29.89,NE,46,3.0,5.0,91,0.06,,,0.17,Wunderground v.1.15,2013-09-25 13:28:00,
2013-09-25 09:34:00,64.7,62.0,29.90,NE,51,2.0,3.0,91,0.04,,,0.17,Wunderground v.1.15,2013-09-25 13:34:00,
2013-09-25 09:40:00,64.7,62.3,29.90,NNE,32,0.0,3.0,92,0.00,,,0.17,Wunderground v.1.15,2013-09-25 13:40:00,
2013-09-25 09:46:00,64.9,62.5,29.90,North,350,0.0,3.0,92,0.00,,,0.17,Wunderground v.1.15,2013-09-25 13:46:00,
2013-09-25 09:52:00,65.0,62.6,29.90,North,350,0.0,3.0,92,0.00,,,0.17,Wunderground v.1.15,2013-09-25 13:52:00,
2013-09-25 09:58:00,65.0,62.6,29.90,North,349,0.0,3.0,92,0.00,,,0.17,Wunderground v.1.15,2013-09-25 13:58:00,
2013-09-25 10:04:00,65.1,62.7,29.90,NW,306,2.0,4.0,92,0.00,,,0.18,Wunderground v.1.15,2013-09-25 14:04:00,
2013-09-25 10:10:00,65.1,63.0,29.90,NW,323,2.0,2.0,93,0.18,,,0.20,Wunderground v.1.15,2013-09-25 14:10:00,
2013-09-25 10:16:00,65.1,63.3,29.90,North,5,2.0,5.0,94,0.09,,,0.20,Wunderground v.1.15,2013-09-25 14:16:00,
2013-09-25 10:22:00,64.9,63.1,29.89,North,11,3.0,3.0,94,0.07,,,0.21,Wunderground v.1.15,2013-09-25 14:22:00,
2013-09-25 10:28:00,64.9,63.1,29.90,NNW,328,2.0,6.0,94,0.06,,,0.21,Wunderground v.1.15,2013-09-25 14:28:00,
2013-09-25 10:34:00,64.9,63.1,29.90,NW,308,3.0,4.0,94,0.04,,,0.21,Wunderground v.1.15,2013-09-25 14:34:00,
2013-09-25 10:40:00,65.0,63.2,29.90,NW,324,3.0,5.0,94,0.00,,,0.21,Wunderground v.1.15,2013-09-25 14:40:00,
2013-09-25 10:46:00,65.0,63.2,29.90,NNE,13,4.0,5.0,94,0.00,,,0.21,Wunderground v.1.15,2013-09-25 14:46:00,
2013-09-25 10:52:00,65.2,63.1,29.89,NNE,27,5.0,5.0,93,0.00,,,0.21,Wunderground v.1.15,2013-09-25 14:52:00,
2013-09-25 10:58:00,65.5,63.1,29.89,NNE,26,5.0,8.0,92,0.00,,,0.21,Wunderground v.1.15,2013-09-25 14:58:00,
2013-09-25 11:04:00,65.7,63.0,29.89,North,5,6.0,6.0,91,0.00,,,0.21,Wunderground v.1.15,2013-09-25 15:04:00,
2013-09-25 11:10:00,65.9,63.2,29.89,North,350,6.0,6.0,91,0.00,,,0.21,Wunderground v.1.15,2013-09-25 15:10:00,
2013-09-25 11:16:00,66.3,63.9,29.89,North,354,5.0,6.0,92,0.00,,,0.21,Wunderground v.1.15,2013-09-25 15:16:00,
2013-09-25 11:22:00,66.4,64.0,29.89,NNE,26,4.0,4.0,92,0.00,,,0.21,Wunderground v.1.15,2013-09-25 15:22:00,
2013-09-25 11:28:00,66.3,63.6,29.90,NNW,334,3.0,4.0,91,0.00,,,0.21,Wunderground v.1.15,2013-09-25 15:28:00,
2013-09-25 11:34:00,66.3,63.9,29.89,NW,326,2.0,3.0,92,0.00,,,0.21,Wunderground v.1.15,2013-09-25 15:34:00,
2013-09-25 11:40:00,66.2,63.8,29.89,NW,305,3.0,3.0,92,0.00,,,0.21,Wunderground v.1.15,2013-09-25 15:40:00,
2013-09-25 11:46:00,66.2,63.8,29.90,NW,318,2.0,4.0,92,0.00,,,0.21,Wunderground v.1.15,2013-09-25 15:46:00,
2013-09-25 11:52:00,66.1,63.7,29.89,WNW,302,3.0,4.0,92,0.00,,,0.21,Wunderground v.1.15,2013-09-25 15:52:00,
2013-09-25 11:58:00,66.2,63.8,29.90,WNW,299,4.0,4.0,92,0.00,,,0.21,Wunderground v.1.15,2013-09-25 15:58:00,
2013-09-25 12:04:00,66.2,63.8,29.90,NW,310,4.0,4.0,92,0.00,,,0.21,Wunderground v.1.15,2013-09-25 16:04:00,
2013-09-25 12:10:00,66.2,63.8,29.90,NW,317,3.0,5.0,92,0.00,,,0.22,Wunderground v.1.15,2013-09-25 16:10:00,
2013-09-25 12:16:00,66.1,63.7,29.90,WNW,299,3.0,5.0,92,0.00,,,0.22,Wunderground v.1.15,2013-09-25 16:16:00,
2013-09-25 12:22:00,66.0,63.6,29.90,NW,318,4.0,5.0,92,0.00,,,0.22,Wunderground v.1.15,2013-09-25 16:22:00,
2013-09-25 12:28:00,66.2,63.8,29.89,NW,315,4.0,5.0,92,0.00,,,0.23,Wunderground v.1.15,2013-09-25 16:28:00,
2013-09-25 12:34:00,66.3,64.2,29.89,NW,314,3.0,4.0,93,0.00,,,0.23,Wunderground v.1.15,2013-09-25 16:34:00,
2013-09-25 12:40:00,66.2,63.8,29.89,NW,321,3.0,4.0,92,0.00,,,0.23,Wunderground v.1.15,2013-09-25 16:40:00,
2013-09-25 12:46:00,66.2,63.8,29.90,NW,325,4.0,5.0,92,0.04,,,0.24,Wunderground v.1.15,2013-09-25 16:46:00,
2013-09-25 12:52:00,66.1,63.7,29.89,WNW,302,4.0,4.0,92,0.04,,,0.24,Wunderground v.1.15,2013-09-25 16:52:00,
2013-09-25 12:58:00,66.0,63.6,29.89,NNW,337,3.0,4.0,92,0.06,,,0.25,Wunderground v.1.15,2013-09-25 16:58:00,
2013-09-25 13:04:00,66.1,63.7,29.89,North,349,3.0,3.0,92,0.09,,,0.26,Wunderground v.1.15,2013-09-25 17:04:00,
2013-09-25 13:10:00,66.2,64.1,29.89,NW,311,2.0,3.0,93,0.06,,,0.27,Wunderground v.1.15,2013-09-25 17:10:00,
2013-09-25 13:16:00,66.0,63.6,29.89,NW,322,3.0,4.0,92,0.06,,,0.27,Wunderground v.1.15,2013-09-25 17:16:00,
2013-09-25 13:22:00,66.0,63.9,29.88,NW,305,3.0,3.0,93,0.04,,,0.27,Wunderground v.1.15,2013-09-25 17:22:00,
2013-09-25 13:28:00,65.9,63.8,29.88,NW,319,3.0,4.0,93,0.00,,,0.28,Wunderground v.1.15,2013-09-25 17:28:00,
2013-09-25 13:34:00,65.9,63.8,29.88,NW,307,3.0,4.0,93,0.10,,,0.29,Wunderground v.1.15,2013-09-25 17:34:00,
2013-09-25 13:40:00,65.9,63.8,29.88,NNW,338,2.0,3.0,93,0.09,,,0.29,Wunderground v.1.15,2013-09-25 17:40:00,
2013-09-25 13:46:00,66.0,64.2,29.87,NNW,338,3.0,4.0,94,0.07,,,0.30,Wunderground v.1.15,2013-09-25 17:46:00,
2013-09-25 13:52:00,66.0,63.9,29.87,NNW,348,4.0,4.0,93,0.06,,,0.30,Wunderground v.1.15,2013-09-25 17:52:00,
2013-09-25 13:58:00,66.1,64.0,29.87,NNW,338,4.0,5.0,93,0.04,,,0.30,Wunderground v.1.15,2013-09-25 17:58:00,
2013-09-25 14:04:00,66.3,64.2,29.87,NNW,328,3.0,5.0,93,0.00,,,0.30,Wunderground v.1.15,2013-09-25 18:04:00,
2013-09-25 14:10:00,66.5,64.4,29.86,NW,314,3.0,4.0,93,0.00,,,0.30,Wunderground v.1.15,2013-09-25 18:10:00,
2013-09-25 14:16:00,66.6,64.5,29.86,NNW,340,3.0,5.0,93,0.00,,,0.30,Wunderground v.1.15,2013-09-25 18:16:00,
2013-09-25 14:22:00,66.7,64.3,29.86,North,350,3.0,4.0,92,0.00,,,0.30,Wunderground v.1.15,2013-09-25 18:22:00,
2013-09-25 14:28:00,66.9,64.2,29.86,NW,322,3.0,4.0,91,0.00,,,0.30,Wunderground v.1.15,2013-09-25 18:28:00,
2013-09-25 14:34:00,67.1,64.4,29.86,NNW,328,3.0,4.0,91,0.00,,,0.30,Wunderground v.1.15,2013-09-25 18:34:00,
2013-09-25 14:40:00,67.2,64.2,29.86,NW,325,3.0,5.0,90,0.00,,,0.30,Wunderground v.1.15,2013-09-25 18:40:00,
2013-09-25 14:46:00,67.3,64.3,29.86,NNW,329,5.0,6.0,90,0.00,,,0.30,Wunderground v.1.15,2013-09-25 18:46:00,
2013-09-25 14:52:00,67.5,64.1,29.86,NNW,332,5.0,6.0,89,0.00,,,0.30,Wunderground v.1.15,2013-09-25 18:52:00,
2013-09-25 14:58:00,67.7,64.7,29.85,NNW,334,4.0,6.0,90,0.00,,,0.30,Wunderground v.1.15,2013-09-25 18:58:00,
2013-09-25 15:04:00,67.9,64.5,29.85,NNW,337,3.0,6.0,89,0.00,,,0.30,Wunderground v.1.15,2013-09-25 19:04:00,
2013-09-25 15:10:00,67.9,63.9,29.85,North,357,5.0,7.0,87,0.00,,,0.30,Wunderground v.1.15,2013-09-25 19:10:00,
2013-09-25 15:16:00,68.0,64.3,29.85,NW,309,5.0,7.0,88,0.00,,,0.30,Wunderground v.1.15,2013-09-25 19:16:00,
2013-09-25 15:22:00,68.1,64.1,29.85,North,4,4.0,5.0,87,0.00,,,0.30,Wunderground v.1.15,2013-09-25 19:22:00,
2013-09-25 15:28:00,68.4,64.7,29.85,North,7,5.0,5.0,88,0.00,,,0.30,Wunderground v.1.15,2013-09-25 19:28:00,
2013-09-25 15:34:00,68.6,64.6,29.84,NNW,342,5.0,6.0,87,0.00,,,0.30,Wunderground v.1.15,2013-09-25 19:34:00,
2013-09-25 15:40:00,68.6,64.2,29.84,NNW,332,5.0,5.0,86,0.00,,,0.30,Wunderground v.1.15,2013-09-25 19:40:00,
2013-09-25 15:46:00,68.7,64.3,29.84,NW,318,5.0,8.0,86,0.00,,,0.30,Wunderground v.1.15,2013-09-25 19:46:00,
2013-09-25 15:52:00,68.5,64.1,29.84,North,352,5.0,5.0,86,0.00,,,0.30,Wunderground v.1.15,2013-09-25 19:52:00,
2013-09-25 15:58:00,68.6,64.6,29.84,NNW,340,4.0,5.0,87,0.00,,,0.30,Wunderground v.1.15,2013-09-25 19:58:00,
2013-09-25 16:04:00,68.6,64.2,29.84,NW,314,4.0,8.0,86,0.00,,,0.30,Wunderground v.1.15,2013-09-25 20:04:00,
2013-09-25 16:10:00,68.6,64.2,29.84,NNW,333,5.0,7.0,86,0.00,,,0.30,Wunderground v.1.15,2013-09-25 20:10:00,
2013-09-25 16:16:00,68.5,64.1,29.84,NW,319,5.0,7.0,86,0.00,,,0.30,Wunderground v.1.15,2013-09-25 20:16:00,
2013-09-25 16:22:00,68.6,64.6,29.84,NW,311,5.0,5.0,87,0.00,,,0.30,Wunderground v.1.15,2013-09-25 20:22:00,
2013-09-25 16:28:00,68.4,64.4,29.85,NNW,332,5.0,7.0,87,0.00,,,0.30,Wunderground v.1.15,2013-09-25 20:28:00,
2013-09-25 16:34:00,68.2,64.2,29.84,NNW,340,5.0,5.0,87,0.00,,,0.30,Wunderground v.1.15,2013-09-25 20:34:00,
2013-09-25 16:40:00,68.2,64.8,29.84,NW,312,4.0,4.0,89,0.00,,,0.30,Wunderground v.1.15,2013-09-25 20:40:00,
2013-09-25 16:46:00,67.9,64.5,29.84,NNW,334,4.0,7.0,89,0.00,,,0.31,Wunderground v.1.15,2013-09-25 20:46:00,
2013-09-25 16:52:00,67.5,64.1,29.84,NW,321,6.0,6.0,89,0.07,,,0.32,Wunderground v.1.15,2013-09-25 20:52:00,
2013-09-25 16:58:00,67.1,63.7,29.84,NW,321,5.0,7.0,89,0.07,,,0.32,Wunderground v.1.15,2013-09-25 20:58:00,
2013-09-25 17:04:00,67.0,63.6,29.85,NW,317,5.0,5.0,89,0.04,,,0.32,Wunderground v.1.15,2013-09-25 21:04:00,
2013-09-25 17:10:00,66.9,63.6,29.85,NNW,341,5.0,5.0,89,0.00,,,0.32,Wunderground v.1.15,2013-09-25 21:10:00,
2013-09-25 17:16:00,66.8,63.5,29.85,NNW,327,5.0,7.0,89,0.00,,,0.32,Wunderground v.1.15,2013-09-25 21:16:00,
2013-09-25 17:22:00,66.9,63.9,29.85,NW,312,4.0,5.0,90,0.00,,,0.32,Wunderground v.1.15,2013-09-25 21:22:00,
2013-09-25 17:28:00,67.0,63.6,29.85,NNW,335,4.0,5.0,89,0.00,,,0.32,Wunderground v.1.15,2013-09-25 21:28:00,
2013-09-25 17:34:00,67.1,63.4,29.85,NW,318,4.0,5.0,88,0.00,,,0.32,Wunderground v.1.15,2013-09-25 21:34:00,
2013-09-25 17:40:00,67.0,63.3,29.85,NW,318,4.0,5.0,88,0.00,,,0.32,Wunderground v.1.15,2013-09-25 21:40:00,
2013-09-25 17:46:00,67.0,63.6,29.86,NW,321,4.0,5.0,89,0.00,,,0.32,Wunderground v.1.15,2013-09-25 21:46:00,
2013-09-25 17:52:00,66.9,63.6,29.85,NW,315,3.0,4.0,89,0.00,,,0.32,Wunderground v.1.15,2013-09-25 21:52:00,
2013-09-25 17:58:00,67.0,64.0,29.85,WNW,302,2.0,4.0,90,0.00,,,0.32,Wunderground v.1.15,2013-09-25 21:58:00,
2013-09-25 18:04:00,67.1,63.7,29.85,NW,322,2.0,3.0,89,0.00,,,0.32,Wunderground v.1.15,2013-09-25 22:04:00,
2013-09-25 18:10:00,67.2,63.8,29.85,NW,307,2.0,3.0,89,0.00,,,0.32,Wunderground v.1.15,2013-09-25 22:10:00,
2013-09-25 18:16:00,67.4,64.0,29.85,WNW,300,2.0,3.0,89,0.00,,,0.32,Wunderground v.1.15,2013-09-25 22:16:00,
2013-09-25 18:22:00,67.4,64.0,29.85,NW,319,3.0,4.0,89,0.00,,,0.32,Wunderground v.1.15,2013-09-25 22:22:00,
2013-09-25 18:28:00,67.4,63.7,29.85,NNW,334,4.0,5.0,88,0.00,,,0.32,Wunderground v.1.15,2013-09-25 22:28:00,
2013-09-25 18:34:00,67.5,64.1,29.85,NNW,342,3.0,4.0,89,0.00,,,0.32,Wunderground v.1.15,2013-09-25 22:34:00,
2013-09-25 18:40:00,67.5,64.1,29.86,NW,321,3.0,3.0,89,0.00,,,0.32,Wunderground v.1.15,2013-09-25 22:40:00,
2013-09-25 18:46:00,67.5,64.1,29.86,NNW,333,3.0,3.0,89,0.00,,,0.32,Wunderground v.1.15,2013-09-25 22:46:00,
2013-09-25 18:52:00,67.6,63.9,29.86,NNW,327,4.0,6.0,88,0.00,,,0.32,Wunderground v.1.15,2013-09-25 22:52:00,
2013-09-25 18:58:00,67.6,63.9,29.86,NW,314,4.0,6.0,88,0.00,,,0.32,Wunderground v.1.15,2013-09-25 22:58:00,
2013-09-25 19:04:00,67.5,64.1,29.86,NW,315,2.0,3.0,89,0.00,,,0.32,Wunderground v.1.15,2013-09-25 23:04:00,
2013-09-25 19:12:00,67.2,63.8,29.86,NW,312,2.0,3.0,89,0.00,,,0.32,Wunderground v.1.15,2013-09-25 23:12:00,
2013-09-25 19:18:00,67.1,63.7,29.86,NW,314,1.0,3.0,89,0.00,,,0.32,Wunderground v.1.15,2013-09-25 23:18:00,
2013-09-25 19:24:00,67.1,64.1,29.86,NW,322,2.0,3.0,90,0.00,,,0.32,Wunderground v.1.15,2013-09-25 23:24:00,
2013-09-25 19:30:00,67.0,64.0,29.86,NW,315,2.0,3.0,90,0.00,,,0.32,Wunderground v.1.15,2013-09-25 23:30:00,
2013-09-25 19:36:00,67.0,64.0,29.86,WNW,282,2.0,3.0,90,0.00,,,0.32,Wunderground v.1.15,2013-09-25 23:36:00,
2013-09-25 19:42:00,66.9,63.9,29.86,WNW,284,1.0,3.0,90,0.00,,,0.32,Wunderground v.1.15,2013-09-25 23:42:00,
2013-09-25 19:48:00,66.8,64.1,29.86,West,280,0.0,3.0,91,0.00,,,0.32,Wunderground v.1.15,2013-09-25 23:48:00,
2013-09-25 19:54:00,66.7,64.0,29.86,West,276,0.0,3.0,91,0.00,,,0.32,Wunderground v.1.15,2013-09-25 23:54:00,
2013-09-25 20:00:00,66.6,63.9,29.86,WNW,285,0.0,3.0,91,0.00,,,0.32,Wunderground v.1.15,2013-09-26 00:00:00,
2013-09-25 20:06:00,66.6,64.2,29.86,WNW,292,0.0,3.0,92,0.00,,,0.32,Wunderground v.1.15,2013-09-26 00:06:00,
2013-09-25 20:12:00,66.4,63.7,29.86,SW,222,0.0,3.0,91,0.00,,,0.32,Wunderground v.1.15,2013-09-26 00:12:00,
2013-09-25 20:18:00,66.3,63.9,29.87,SW,219,0.0,3.0,92,0.00,,,0.32,Wunderground v.1.15,2013-09-26 00:18:00,
2013-09-25 20:24:00,66.2,63.8,29.87,SW,219,0.0,3.0,92,0.00,,,0.32,Wunderground v.1.15,2013-09-26 00:24:00,
2013-09-25 20:30:00,66.2,63.8,29.87,SW,219,0.0,3.0,92,0.00,,,0.32,Wunderground v.1.15,2013-09-26 00:30:00,
2013-09-25 20:36:00,65.9,63.8,29.87,SW,221,0.0,3.0,93,0.00,,,0.32,Wunderground v.1.15,2013-09-26 00:36:00,
2013-09-25 20:42:00,65.8,63.7,29.87,SW,229,0.0,3.0,93,0.00,,,0.32,Wunderground v.1.15,2013-09-26 00:42:00,
2013-09-25 20:48:00,65.9,63.8,29.87,West,278,0.0,3.0,93,0.00,,,0.32,Wunderground v.1.15,2013-09-26 00:48:00,
2013-09-25 20:54:00,66.0,63.9,29.88,NNW,337,0.0,3.0,93,0.00,,,0.32,Wunderground v.1.15,2013-09-26 00:54:00,
2013-09-25 21:00:00,66.0,63.9,29.88,NW,307,0.0,3.0,93,0.00,,,0.32,Wunderground v.1.15,2013-09-26 01:00:00,
2013-09-25 21:06:00,66.0,63.9,29.88,NW,312,1.0,3.0,93,0.00,,,0.32,Wunderground v.1.15,2013-09-26 01:06:00,
2013-09-25 21:12:00,66.0,63.9,29.88,WNW,302,3.0,3.0,93,0.00,,,0.32,Wunderground v.1.15,2013-09-26 01:12:00,
2013-09-25 21:18:00,66.0,63.6,29.88,NW,319,3.0,3.0,92,0.00,,,0.32,Wunderground v.1.15,2013-09-26 01:18:00,
2013-09-25 21:24:00,66.0,63.6,29.88,WNW,293,2.0,3.0,92,0.00,,,0.32,Wunderground v.1.15,2013-09-26 01:24:00,
2013-09-25 21:30:00,66.0,63.6,29.89,WNW,289,1.0,3.0,92,0.00,,,0.32,Wunderground v.1.15,2013-09-26 01:30:00,
2013-09-25 21:36:00,66.0,63.6,29.89,NW,314,2.0,3.0,92,0.00,,,0.32,Wunderground v.1.15,2013-09-26 01:36:00,
2013-09-25 21:42:00,66.0,63.6,29.89,WNW,291,2.0,3.0,92,0.00,,,0.32,Wunderground v.1.15,2013-09-26 01:42:00,
2013-09-25 21:48:00,66.0,63.6,29.89,WSW,253,1.0,3.0,92,0.00,,,0.32,Wunderground v.1.15,2013-09-26 01:48:00,
2013-09-25 21:54:00,66.0,63.6,29.89,WNW,300,1.0,3.0,92,0.00,,,0.32,Wunderground v.1.15,2013-09-26 01:54:00,
2013-09-25 22:00:00,66.0,63.6,29.88,NW,314,1.0,1.0,92,0.00,,,0.32,Wunderground v.1.15,2013-09-26 02:00:00,
2013-09-25 22:06:00,66.0,63.6,29.88,WNW,295,1.0,3.0,92,0.00,,,0.32,Wunderground v.1.15,2013-09-26 02:06:00,
2013-09-25 22:12:00,65.9,63.5,29.88,NW,315,1.0,3.0,92,0.00,,,0.32,Wunderground v.1.15,2013-09-26 02:12:00,
2013-09-25 22:18:00,66.0,63.6,29.88,NW,316,1.0,3.0,92,0.00,,,0.32,Wunderground v.1.15,2013-09-26 02:18:00,
2013-09-25 22:24:00,66.0,63.6,29.89,WNW,287,0.0,3.0,92,0.00,,,0.32,Wunderground v.1.15,2013-09-26 02:24:00,
2013-09-25 22:30:00,65.8,63.4,29.89,NW,316,1.0,3.0,92,0.00,,,0.32,Wunderground v.1.15,2013-09-26 02:30:00,
2013-09-25 22:36:00,65.8,63.4,29.89,WNW,297,2.0,3.0,92,0.00,,,0.32,Wunderground v.1.15,2013-09-26 02:36:00,
2013-09-25 22:42:00,65.8,63.7,29.89,NW,307,2.0,3.0,93,0.00,,,0.32,Wunderground v.1.15,2013-09-26 02:42:00,
2013-09-25 22:48:00,65.8,63.4,29.89,WNW,283,2.0,4.0,92,0.00,,,0.32,Wunderground v.1.15,2013-09-26 02:48:00,
2013-09-25 22:54:00,65.8,63.4,29.89,WNW,295,3.0,3.0,92,0.00,,,0.32,Wunderground v.1.15,2013-09-26 02:54:00,
2013-09-25 23:00:00,65.7,63.3,29.89,WNW,300,2.0,2.0,92,0.00,,,0.32,Wunderground v.1.15,2013-09-26 03:00:00,
2013-09-25 23:06:00,65.7,63.3,29.89,West,270,1.0,3.0,92,0.00,,,0.32,Wunderground v.1.15,2013-09-26 03:06:00,
2013-09-25 23:12:00,65.7,63.3,29.90,WNW,285,1.0,3.0,92,0.00,,,0.32,Wunderground v.1.15,2013-09-26 03:12:00,
2013-09-25 23:18:00,65.6,63.5,29.90,WNW,300,2.0,3.0,93,0.00,,,0.32,Wunderground v.1.15,2013-09-26 03:18:00,
2013-09-25 23:24:00,65.6,63.2,29.90,WNW,295,2.0,3.0,92,0.00,,,0.32,Wunderground v.1.15,2013-09-26 03:24:00,
2013-09-25 23:30:00,65.7,63.3,29.90,NW,317,2.0,3.0,92,0.00,,,0.32,Wunderground v.1.15,2013-09-26 03:30:00,
2013-09-25 23:36:00,65.6,63.2,29.90,NW,310,2.0,3.0,92,0.00,,,0.32,Wunderground v.1.15,2013-09-26 03:36:00,
2013-09-25 23:42:00,65.5,63.4,29.90,NW,310,3.0,4.0,93,0.00,,,0.32,Wunderground v.1.15,2013-09-26 03:42:00,
2013-09-25 23:48:00,65.4,63.3,29.90,WNW,297,3.0,4.0,93,0.00,,,0.32,Wunderground v.1.15,2013-09-26 03:48:00,
2013-09-25 23:54:00,65.4,63.3,29.90,NW,307,3.0,3.0,93,0.00,,,0.32,Wunderground v.1.15,2013-09-26 03:54:00,